Wetbulb
53.69 55.34 57.61 60.29 62.13 63.18 63.72 63.78 63.48 63.38 63.41 63.29 62.72 62.28 61.91 61.55 61.21 61.11 61.05 60.90 60.68 60.32 59.85 59.52 58.92 58.60 58.03 57.30 56.61 56.16 55.77 55.62 54.65 53.21 51.88 51.15 50.88 50.47 49.90 49.55 48.31 47.23 46.35 45.89 46.29 46.78 47.14 47.50 47.19 46.87 46.56 46.24 45.30 44.62 43.99 43.54 42.82 42.15 41.52 41.00 40.43 40.04 39.59 38.98 37.34 37.14 37.62 38.27 38.15
52.66 54.30 56.39 58.85 60.94 62.47 63.41 63.59 63.43 63.32 63.25 63.22 63.06 62.74 62.31 61.86 61.55 61.30 61.13 60.88 60.63 60.29 59.76 58.93 58.35 57.87 57.07 55.82 55.71 55.56 55.19 54.42 53.47 52.27 51.12 50.63 50.22 49.67 48.92 48.16 47.29 46.66 46.31 46.25 46.60 46.96 47.23 47.36 47.14 46.78 46.20 45.52 44.57 43.71 43.08 42.90 42.33 41.43 40.72 40.16 39.81 39.67 39.38 38.40 37.15 37.18 37.62 37.88 37.67
51.88 53.62 55.55 57.71 60.01 61.70 62.69 63.13 63.22 63.39 63.38 63.24 63.08 62.78 62.48 62.11 61.75 61.32 61.12 60.88 60.51 59.81 58.95 58.00 57.72 57.25 56.46 55.15 55.08 55.07 54.72 53.83 52.69 51.38 50.54 50.40 50.26 49.53 48.40 46.90 46.70 46.57 46.53 46.73 47.13 47.31 47.36 47.37 47.14 46.60 45.66 44.57 43.67 42.90 42.14 41.82 41.60 41.02 40.22 39.58 39.37 39.21 38.96 38.57 37.00 36.64 36.72 36.61 37.00
50.74 52.57 54.55 56.57 58.73 60.66 62.03 62.74 63.04 63.24 63.21 63.17 63.02 62.75 62.34 61.97 61.60 61.35 61.07 60.65 59.70 58.79 57.94 57.54 57.30 56.91 56.20 55.14 54.66 54.48 54.23 53.52 52.11 50.82 49.80 49.49 49.50 49.20 48.52 47.55 46.60 46.65 47.08 47.44 47.85 47.94 47.90 47.59 47.05 46.24 45.20 43.94 43.36 42.50 41.64 41.05 41.02 40.57 39.99 39.48 39.31 39.02 38.61 38.23 38.01 38.05 37.95 37.34 37.27
49.57 51.52 53.51 55.53 57.56 59.56 61.30 62.49 62.81 62.95 62.98 63.01 62.81 62.40 61.91 61.75 61.32 61.03 60.65 59.83 58.95 58.28 57.74 57.27 57.26 56.77 55.98 55.14 54.30 53.83 53.35 52.53 51.28 50.01 48.83 47.98 47.85 47.68 47.49 47.46 46.91 46.87 47.18 47.71 47.67 47.86 47.90 47.77 46.78 45.70 44.57 43.67 43.36 42.50 41.60 40.93 40.66 40.17 39.68 39.55 39.67 39.51 39.07 38.58 38.70 38.42 37.88 37.23 37.22
49.04 50.47 52.38 54.44 56.51 58.46 60.27 61.75 62.47 62.83 62.91 62.90 62.64 62.06 61.62 61.28 61.13 60.66 60.14 59.52 58.78 57.96 57.18 56.74 56.73 55.92 55.01 54.53 53.59 52.61 51.51 50.37 49.74 48.68 47.66 46.64 46.35 46.32 46.37 46.55 46.82 47.04 47.27 47.36 47.50 47.45 47.28 46.96 45.79 44.80 43.98 43.76 43.14 42.37 41.52 40.99 40.53 39.99 39.46 39.19 39.66 39.71 39.45 38.85 38.54 38.18 37.73 37.14 36.82
49.26 49.89 51.18 53.06 55.21 57.19 58.97 60.57 61.78 62.54 62.89 62.75 62.40 61.97 61.54 61.32 61.14 60.77 60.24 59.85 58.57 57.26 56.34 56.09 55.66 54.49 53.38 53.17 52.40 51.09 49.59 48.29 47.76 47.01 46.26 45.37 45.41 45.50 45.67 45.90 46.29 46.82 47.14 46.78 47.14 47.10 46.74 46.02 44.93 44.12 43.58 43.53 42.32 41.52 41.04 40.90 40.53 39.90 39.23 38.88 39.37 39.47 39.12 38.33 38.09 37.73 37.33 36.74 36.51
49.36 49.64 50.51 52.02 53.86 55.83 57.79 59.64 60.99 61.97 62.24 61.97 61.74 61.62 61.57 61.36 61.06 60.67 60.22 59.76 57.83 56.63 55.88 55.49 54.15 52.75 51.75 51.52 50.73 49.39 47.97 47.00 46.53 46.00 45.37 44.90 44.82 44.90 45.16 45.42 45.94 46.38 46.61 46.52 46.47 46.29 45.88 45.43 44.62 43.76 43.04 42.59 41.59 40.93 40.76 40.80 40.39 39.76 39.16 38.65 38.74 38.65 38.27 37.72 37.52 37.41 37.04 36.53 36.18
50.32 50.29 50.67 51.74 53.29 55.13 56.94 58.79 60.29 61.07 61.51 61.56 61.58 61.58 61.34 61.10 60.68 60.42 59.94 59.19 57.33 56.29 55.37 54.48 52.48 51.09 50.27 49.93 48.96 47.83 46.79 46.16 45.86 45.45 45.12 44.77 44.60 44.73 44.99 45.20 45.38 45.59 45.81 45.76 45.62 45.30 44.99 44.49 43.85 43.22 42.50 41.82 41.01 40.57 40.38 40.46 39.89 39.31 38.83 38.24 37.83 37.48 37.36 37.30 37.28 37.24 37.08 36.58 35.93
51.10 51.05 51.05 51.44 52.89 54.57 56.21 57.94 59.22 60.10 60.69 60.96 60.99 60.77 60.41 59.81 59.96 59.95 59.56 58.69 56.94 55.63 54.38 52.96 50.92 49.69 48.96 48.27 47.44 46.66 46.07 45.68 45.81 45.68 45.37 45.24 45.28 45.20 45.20 45.07 45.11 45.02 44.96 44.77 44.63 44.40 43.95 43.36 42.54 42.00 41.56 41.11 40.58 40.16 39.88 39.83 39.12 38.31 37.69 37.38 36.88 36.55 36.57 36.88 37.18 37.24 37.04 36.57 35.72
51.01 51.02 51.11 51.47 52.51 53.93 55.41 57.12 58.05 58.76 59.23 59.64 59.32 59.06 58.88 58.93 59.50 59.52 58.95 58.07 56.21 54.49 52.96 51.25 49.59 48.57 47.79 47.05 46.46 46.00 45.73 45.36 45.25 45.15 45.14 45.02 45.11 45.06 44.93 44.93 44.84 44.52 44.02 43.65 43.65 43.41 42.91 42.23 41.34 40.63 40.19 39.90 39.79 39.57 39.22 38.99 38.20 37.29 36.58 36.46 36.09 35.79 35.76 36.42 36.96 37.17 36.92 36.35 35.38
50.36 50.54 50.97 51.57 52.37 53.44 54.75 56.24 56.95 57.45 57.87 58.05 57.79 57.77 58.12 58.86 59.15 58.78 57.96 56.92 54.93 53.05 51.31 49.78 48.68 47.87 47.00 46.48 45.94 45.48 45.09 44.81 44.65 44.51 44.34 44.38 44.47 44.42 44.28 44.41 44.22 43.73 43.15 42.96 43.17 42.80 42.12 41.23 40.34 39.55 39.00 38.71 38.77 38.60 38.27 37.85 37.10 36.38 35.80 35.66 35.55 35.31 35.28 35.69 36.38 36.60 36.37 35.78 34.53
49.43 49.84 50.37 50.95 51.70 52.86 54.07 55.10 55.44 55.84 56.18 56.66 57.03 57.56 58.02 58.46 58.28 57.83 56.98 55.62 53.72 51.58 49.69 48.26 47.89 47.22 46.56 45.90 45.31 44.90 44.67 44.43 44.39 44.35 44.26 44.39 44.12 43.98 43.84 43.66 43.21 42.85 42.44 42.47 42.46 41.96 41.15 40.11 39.21 38.42 37.83 37.79 37.87 37.70 37.45 36.92 36.25 35.63 35.28 35.08 35.10 35.00 34.96 35.00 35.61 35.77 35.56 34.88 33.66
48.65 48.83 49.19 49.99 51.15 52.31 53.25 53.69 53.99 54.46 55.07 55.94 56.65 57.20 57.37 57.16 56.88 56.52 55.72 54.38 52.18 50.00 48.24 47.09 47.01 46.58 45.97 45.24 44.84 44.50 44.30 44.35 44.39 44.35 44.26 44.12 43.80 43.52 43.20 42.79 42.35 42.03 41.84 41.70 41.43 40.70 39.96 39.09 38.33 37.82 37.29 37.01 36.95 36.93 36.75 36.32 35.86 35.48 35.27 35.10 34.74 34.53 34.46 34.74 35.10 35.29 35.05 34.44 33.64
48.87 49.01 49.32 49.90 51.23 52.04 52.45 52.58 52.92 53.62 54.49 55.42 55.53 55.79 55.73 55.24 55.23 54.77 54.00 52.77 50.76 48.99 47.42 46.28 46.16 45.73 45.22 44.76 44.49 44.38 44.38 44.39 44.47 44.39 43.99 43.84 43.38 42.92 42.48 41.94 41.50 41.41 41.14 40.87 40.35 39.72 39.00 38.37 37.94 37.56 37.17 36.79 36.66 36.45 36.32 36.26 36.00 35.91 35.62 35.27 34.75 34.51 34.56 34.86 35.37 35.59 35.45 34.96 34.48
49.04 49.40 49.76 50.08 50.79 51.47 51.82 51.96 52.47 52.94 53.33 53.60 53.50 53.62 53.60 53.49 53.44 53.07 52.24 51.06 49.77 48.19 46.76 45.57 45.18 44.85 44.66 44.59 44.51 44.43 44.47 44.35 44.17 43.98 43.52 42.97 42.47 42.08 41.64 41.02 40.84 40.63 40.38 39.89 39.40 38.95 38.46 38.21 37.99 37.70 37.40 37.06 36.84 36.67 36.58 36.58 36.35 36.08 35.69 35.32 34.95 34.78 34.96 35.49 36.00 36.18 36.22 36.12 35.68
47.98 48.56 49.27 49.85 50.43 50.88 51.14 51.40 51.64 51.63 51.60 51.39 51.36 51.61 51.80 51.95 51.73 51.31 50.67 49.76 48.59 47.34 45.98 45.07 44.77 44.52 44.47 44.60 44.56 44.47 44.30 44.07 43.71 43.29 42.84 42.21 41.73 41.25 40.76 40.27 40.11 39.86 39.57 39.14 38.66 38.28 38.11 38.15 38.16 37.99 37.69 37.51 37.25 37.03 36.83 36.83 36.31 35.82 35.43 35.22 35.15 35.36 35.64 36.40 36.52 36.64 36.77 36.83 36.35
47.18 47.89 48.64 49.43 50.05 50.61 50.86 50.68 50.50 50.16 49.82 49.65 49.76 49.95 50.14 50.23 49.83 49.38 48.93 48.47 47.58 46.43 45.42 44.86 44.64 44.51 44.45 44.40 44.45 44.44 44.13 43.55 43.02 42.53 42.09 41.57 41.04 40.42 39.89 39.55 39.39 39.19 38.99 38.74 38.39 38.11 37.93 37.97 38.06 37.93 37.78 37.43 37.09 36.83 36.63 36.45 35.94 35.63 35.54 35.48 35.62 35.81 36.00 36.37 36.50 36.78 36.87 36.83 35.87
46.65 47.22 47.93 48.59 49.24 49.70 49.81 49.64 49.13 48.67 48.41 48.36 48.24 48.25 48.16 48.12 47.85 47.45 47.05 46.87 46.39 45.77 45.07 44.67 44.58 44.44 44.30 44.12 44.03 43.89 43.67 42.88 42.09 41.53 41.05 40.75 40.22 39.65 39.26 38.88 38.85 38.73 38.60 38.43 38.20 37.89 37.74 37.60 37.51 37.35 37.21 36.80 36.54 36.33 36.16 35.99 35.79 35.66 35.61 35.54 35.35 35.22 35.16 35.15 35.46 35.64 35.64 35.34 34.34
46.47 47.05 47.62 48.14 48.48 48.69 48.77 48.60 48.04 47.61 47.22 47.09 46.78 46.61 46.34 46.21 46.08 45.72 45.45 45.32 45.45 45.23 44.66 44.25 43.98 43.84 43.53 43.27 42.83 42.43 42.11 41.66 40.82 40.30 39.92 39.75 39.35 39.00 38.74 38.62 38.45 38.40 38.31 38.14 37.82 37.56 37.26 37.04 36.93 36.75 36.58 36.40 36.13 35.89 35.76 35.73 35.45 35.25 35.00 34.68 34.24 33.98 33.80 33.71 33.80 33.76 33.63 33.29 32.70
46.87 47.31 47.75 48.04 48.08 47.99 47.95 47.73 47.21 46.69 46.16 45.77 45.46 45.28 45.06 44.88 44.66 44.52 44.39 44.47 44.47 44.20 43.80 43.48 43.04 42.64 42.19 41.80 41.09 40.65 40.38 40.45 39.71 39.30 39.13 39.00 38.74 38.56 38.43 38.25 38.05 37.93 37.81 37.72 37.29 37.00 36.79 36.75 36.64 36.59 36.37 36.24 35.92 35.59 35.35 35.16 34.71 34.36 34.13 33.86 33.44 33.20 33.04 33.03 32.91 32.74 32.57 32.43 32.16
47.18 47.48 47.61 47.61 47.48 47.17 46.86 46.56 46.25 45.64 45.07 44.67 44.32 44.18 43.96 43.73 43.50 43.36 43.44 43.52 43.30 43.03 42.62 42.30 41.91 41.38 40.86 40.37 39.80 39.45 39.31 39.39 38.96 38.76 38.63 38.49 38.23 38.14 38.19 38.19 37.67 37.38 37.16 36.85 36.77 36.61 36.50 36.42 36.37 36.37 36.18 35.83 35.43 35.12 34.88 34.57 34.20 33.86 33.39 33.09 32.90 32.71 32.60 32.64 32.55 32.35 32.20 32.16 31.95
46.95 46.95 46.82 46.56 46.34 46.03 45.72 45.29 44.80 44.28 43.79 43.39 43.13 42.90 42.72 42.41 42.26 42.34 42.33 42.15 41.79 41.42 41.01 40.78 40.38 39.96 39.54 39.16 38.94 38.63 38.37 38.26 38.02 37.90 37.73 37.60 37.46 37.46 37.55 37.64 37.23 36.92 36.64 36.62 36.51 36.44 36.28 36.05 35.97 35.93 35.78 35.46 35.01 34.79 34.52 34.16 33.78 33.27 32.82 32.69 32.47 32.24 32.12 32.16 32.13 32.03 31.94 31.73 31.64
45.77 45.68 45.55 45.25 44.76 44.50 44.19 43.75 43.31 42.82 42.46 42.02 41.89 41.63 41.45 41.14 41.04 40.86 40.68 40.36 40.01 39.62 39.43 39.18 39.03 38.78 38.59 38.25 38.11 37.83 37.51 37.22 37.04 36.92 36.96 36.93 36.96 37.01 37.02 37.14 36.86 36.64 36.61 36.75 36.96 36.81 36.56 36.13 35.72 35.60 35.49 35.19 34.85 34.57 34.25 33.92 33.65 33.27 32.78 32.45 32.18 31.98 31.80 31.83 31.79 31.68 31.55 31.43 31.52
44.11 44.02 43.85 43.59 43.33 43.06 42.80 42.40 41.90 41.42 41.19 40.94 40.77 40.55 40.20 39.88 39.62 39.35 39.04 38.68 38.49 38.31 38.14 37.99 37.98 37.92 37.83 37.64 37.52 37.43 37.24 36.93 36.74 36.60 36.60 36.73 36.79 36.99 37.02 37.02 36.94 37.03 37.27 37.70 38.47 38.61 38.15 37.36 36.45 35.69 35.17 34.90 34.49 34.26 34.03 33.85 33.58 33.32 32.90 32.53 32.31 31.98 31.72 31.53 31.34 31.18 31.01 30.83 30.66
42.63 42.41 42.14 41.87 41.65 41.48 41.30 41.00 40.60 40.34 40.08 39.91 39.62 39.22 38.95 38.60 38.43 38.21 37.89 37.72 37.58 37.61 37.65 37.60 37.58 37.65 37.59 37.33 37.30 37.26 37.26 37.16 36.93 36.85 36.71 36.73 36.77 36.87 37.09 37.12 37.30 37.69 38.24 38.97 39.52 39.56 39.24 38.86 37.82 36.56 35.35 34.50 34.25 34.06 33.79 33.72 33.43 33.27 33.05 32.78 32.56 32.22 31.81 31.38 31.08 30.77 30.39 30.00 29.38
41.18 40.88 40.70 40.44 40.12 39.88 39.60 39.59 39.42 39.13 38.92 38.67 38.38 38.16 37.99 37.91 37.91 37.69 37.45 37.24 37.24 37.37 37.57 37.58 37.52 37.72 37.79 37.31 37.21 37.08 37.18 37.41 37.30 37.11 36.98 36.92 36.84 36.98 37.24 37.62 37.88 38.37 39.22 40.12 40.36 40.18 39.86 39.40 38.59 37.39 35.88 34.38 34.05 33.68 33.39 33.20 32.86 32.83 32.69 32.54 32.49 32.25 31.75 31.15 30.67 30.19 29.58 29.19 28.74
40.00 39.87 39.57 39.25 38.77 38.52 38.38 38.28 38.07 37.73 37.60 37.54 37.38 37.38 37.38 37.35 37.34 37.20 37.10 37.04 37.13 37.19 37.33 37.34 37.65 37.80 37.87 37.70 37.34 37.27 37.32 37.51 37.51 37.44 37.29 37.26 37.31 37.41 37.68 38.11 38.58 39.24 40.04 40.82 40.77 40.54 40.08 39.63 38.86 37.83 36.58 34.94 33.95 33.48 33.12 32.67 32.41 32.24 32.17 32.06 31.79 31.55 31.02 30.43 29.90 29.47 29.09 28.72 28.71
39.33 39.11 38.89 38.36 37.83 37.57 37.51 37.35 37.04 36.95 36.92 37.01 36.98 36.99 36.99 36.88 36.79 36.77 36.71 36.71 36.90 36.98 37.14 37.35 37.72 37.76 37.71 37.54 37.42 37.40 37.51 37.55 37.76 37.76 37.63 37.61 37.76 38.01 38.44 38.92 39.41 40.12 40.79 41.40 40.99 40.62 40.13 39.59 38.91 38.18 37.14 35.72 34.05 33.24 32.94 32.62 32.17 31.97 31.79 31.50 30.82 30.44 30.15 29.92 29.63 29.46 29.18 29.01 28.81
38.72 38.54 38.24 37.77 37.34 37.06 36.81 36.73 36.66 36.75 36.77 36.79 36.66 36.57 36.56 36.50 36.44 36.51 36.51 36.56 36.72 36.94 37.22 37.53 37.53 37.34 37.12 37.16 37.27 37.45 37.49 37.71 37.82 37.88 37.91 37.86 38.17 38.46 38.94 39.55 39.81 40.38 41.08 41.52 41.16 40.58 40.04 39.45 38.80 38.11 37.11 35.88 34.15 32.98 32.44 32.22 31.88 31.49 30.93 30.30 29.88 29.65 29.58 29.36 29.35 29.24 29.07 29.05 28.66
38.04 37.86 37.59 37.33 36.93 36.64 36.44 36.54 36.60 36.61 36.66 36.58 36.35 36.31 36.23 36.25 36.13 36.24 36.54 36.73 36.97 37.37 37.68 37.59 37.26 36.98 36.98 37.30 37.43 37.48 37.61 37.89 38.18 38.29 38.28 38.29 38.61 38.89 39.22 39.54 39.81 40.33 40.89 41.15 40.72 40.13 39.57 38.84 38.14 37.33 36.48 35.55 33.87 32.71 31.99 31.75 31.27 30.66 30.14 29.74 29.45 29.34 29.14 28.91 28.84 28.64 28.46 28.34 28.40
37.28 37.14 36.92 36.64 36.48 36.29 36.28 36.31 36.38 36.42 36.33 36.18 36.08 36.08 36.09 36.08 36.13 36.38 36.64 36.94 37.12 37.22 37.22 37.04 36.90 36.85 37.03 37.35 37.48 37.66 37.84 38.16 38.35 38.54 38.64 38.66 38.70 38.90 39.19 39.41 39.50 39.82 40.10 40.38 39.86 39.34 38.79 38.11 37.36 36.61 35.88 34.98 33.39 32.00 31.05 30.71 30.29 29.94 29.59 29.29 29.19 29.01 28.89 28.66 28.37 28.01 27.71 27.65 27.94
36.65 36.52 36.37 36.09 36.00 36.02 36.11 36.17 36.31 36.32 36.19 36.04 35.88 35.82 35.78 35.77 36.03 36.30 36.53 36.81 36.81 36.67 36.54 36.63 36.52 36.64 36.85 36.98 37.29 37.56 37.84 38.20 38.45 38.68 38.99 38.99 39.03 38.98 39.14 39.14 39.26 39.54 39.77 39.81 39.34 38.76 38.14 37.48 36.75 35.98 35.21 34.31 32.59 31.26 30.39 30.12 29.63 29.26 28.84 28.61 28.47 28.28 28.10 27.91 27.69 27.25 26.83 26.57 26.60
36.11 35.93 35.83 35.64 35.64 35.73 35.91 35.97 36.07 36.08 35.99 35.76 35.56 35.64 35.60 35.41 35.59 35.77 36.04 36.40 36.45 36.40 36.36 36.45 36.49 36.63 36.76 37.03 37.21 37.42 37.60 37.91 38.00 38.18 38.37 38.56 38.77 38.77 38.71 38.78 39.14 39.45 39.61 39.35 38.80 38.14 37.45 36.72 36.00 35.33 34.51 33.66 31.68 30.58 29.86 29.45 29.07 28.65 28.20 27.86 27.51 27.07 26.62 26.26 26.01 25.70 25.44 25.21 25.32
35.80 35.58 35.43 35.37 35.38 35.47 35.56 35.67 35.72 35.58 35.40 35.20 35.15 35.19 35.33 35.33 35.36 35.50 35.68 36.00 35.91 35.63 35.58 35.71 35.99 36.30 36.48 36.75 36.85 36.84 36.73 36.62 36.66 36.88 37.23 37.63 37.87 38.19 38.28 38.31 38.64 39.06 39.25 38.73 38.02 37.37 36.64 35.84 35.17 34.48 33.65 32.52 30.79 29.72 29.17 28.75 28.35 27.89 27.42 26.96 26.35 25.56 24.91 24.56 24.23 23.97 23.76 23.59 23.86
35.85 35.58 35.35 35.38 35.31 35.35 35.36 35.36 35.27 35.04 34.85 34.61 34.47 34.60 34.64 34.86 35.13 35.31 35.54 35.65 35.19 34.78 34.71 34.89 35.13 35.13 35.07 35.29 35.49 35.74 35.81 35.57 35.61 35.91 36.36 36.96 37.15 37.33 37.61 37.83 38.08 38.41 38.56 38.10 37.28 36.44 35.73 35.18 34.53 33.91 32.95 31.27 29.89 29.16 28.77 28.24 27.73 27.26 26.71 26.20 25.46 24.66 24.03 23.78 23.55 23.31 23.06 22.80 22.87
35.95 35.73 35.58 35.40 35.22 35.13 35.09 34.95 34.69 34.32 34.08 33.90 33.98 34.02 34.09 34.23 34.44 34.86 35.23 35.22 34.61 34.23 34.08 34.17 34.13 33.98 33.84 33.82 34.03 34.51 35.01 35.35 35.30 35.35 35.62 36.09 36.14 36.23 36.53 37.03 37.28 37.56 37.67 37.33 36.57 35.78 35.19 34.75 34.26 33.36 32.00 29.97 28.97 28.39 28.05 27.64 27.24 26.91 26.43 25.65 24.79 23.90 23.31 23.19 23.00 22.98 22.97 23.01 23.75
35.73 35.68 35.46 35.13 34.77 34.59 34.54 34.41 34.05 33.72 33.53 33.41 33.66 33.84 34.02 34.15 34.27 34.68 35.01 35.00 34.13 33.78 33.50 33.53 33.42 33.36 33.39 33.53 33.74 33.92 34.33 34.98 34.92 34.69 34.51 34.79 35.07 35.38 35.67 35.97 36.44 36.77 37.02 36.85 36.11 35.50 34.93 34.62 33.99 32.96 31.28 29.14 28.36 27.96 27.69 27.34 26.92 26.59 26.23 25.61 24.83 23.91 23.15 22.78 22.78 22.89 23.30 24.31 28.13
35.13 35.13 34.95 34.54 34.23 34.01 33.95 33.72 33.53 33.34 33.24 33.24 33.42 33.64 33.84 34.15 34.23 34.53 34.77 34.78 34.27 33.78 33.48 33.21 33.26 33.38 33.53 33.76 33.46 33.31 33.45 34.00 34.42 34.42 34.24 34.17 34.83 35.15 35.15 34.85 35.38 36.12 36.74 36.73 36.01 35.36 34.90 34.49 33.81 32.80 31.24 29.20 28.20 27.69 27.38 26.88 26.32 25.95 25.73 25.56 25.15 24.58 23.70 22.71 22.48 23.01 23.85 25.22 29.91
34.06 34.02 33.75 33.43 33.39 33.26 33.12 32.92 32.88 32.97 33.15 33.15 32.96 33.12 33.53 33.90 34.07 34.29 34.38 34.42 34.20 33.89 33.57 33.37 33.35 33.49 33.61 33.69 32.85 32.18 31.87 31.81 32.21 32.76 33.23 33.61 34.17 34.42 33.90 32.62 32.76 34.12 35.73 36.70 36.05 35.38 34.82 34.39 33.83 32.80 31.22 28.90 27.94 27.54 27.20 26.63 26.19 25.77 25.36 25.11 25.08 24.98 24.66 23.75 23.10 23.38 23.98 24.31 26.89
33.27 33.00 32.64 32.46 32.46 32.37 32.28 32.18 32.30 32.72 33.08 33.03 32.89 33.30 33.84 34.25 34.21 34.20 34.06 34.02 33.89 33.71 33.48 33.12 33.03 33.01 33.12 32.95 31.78 30.65 29.76 29.17 29.02 29.43 30.15 31.00 31.45 31.60 31.20 29.89 29.73 30.46 32.10 34.75 35.90 35.65 34.85 34.41 33.85 32.92 31.31 28.74 27.67 27.42 27.46 27.34 26.82 26.14 25.23 24.25 23.82 24.15 24.58 24.45 24.06 24.11 23.92 23.29 22.91
MSLP
1010.87 1010.87 1010.83 1010.75 1010.75 1010.75 1010.75 1010.75 1010.71 1010.75 1010.75 1010.79 1010.87 1010.87 1010.95 1011.07 1011.15 1011.19 1011.23 1011.31 1011.35 1011.47 1011.55 1011.63 1011.79 1011.99 1012.19 1012.43 1012.55 1012.63 1012.75 1012.87 1013.03 1013.19 1013.39 1013.59 1013.79 1014.03 1014.23 1014.47 1014.71 1014.91 1015.15 1015.47 1015.71 1015.95 1016.19 1016.47 1016.79 1017.19 1017.59 1017.91 1018.19 1018.43 1018.59 1018.83 1018.95 1019.07 1019.31 1019.51 1019.79 1019.95 1020.07 1020.23 1020.39 1020.47 1020.47 1020.55 1020.71
1010.79 1010.79 1010.75 1010.75 1010.71 1010.67 1010.67 1010.63 1010.63 1010.63 1010.63 1010.67 1010.67 1010.67 1010.75 1010.83 1010.91 1010.99 1011.03 1011.11 1011.15 1011.23 1011.35 1011.55 1011.75 1011.95 1012.19 1012.39 1012.51 1012.63 1012.75 1012.91 1013.03 1013.23 1013.43 1013.59 1013.79 1013.99 1014.23 1014.47 1014.63 1014.83 1015.03 1015.19 1015.43 1015.71 1015.95 1016.19 1016.47 1016.87 1017.23 1017.59 1017.87 1018.07 1018.31 1018.51 1018.75 1018.95 1019.19 1019.47 1019.67 1019.87 1020.03 1020.19 1020.31 1020.31 1020.35 1020.43 1020.59
1010.75 1010.75 1010.67 1010.63 1010.59 1010.59 1010.55 1010.47 1010.47 1010.47 1010.47 1010.47 1010.55 1010.59 1010.59 1010.67 1010.75 1010.79 1010.87 1010.87 1010.99 1011.15 1011.35 1011.55 1011.67 1011.87 1012.11 1012.31 1012.51 1012.63 1012.75 1012.87 1013.03 1013.27 1013.51 1013.71 1013.87 1014.07 1014.27 1014.51 1014.75 1014.95 1015.07 1015.15 1015.31 1015.51 1015.75 1016.03 1016.31 1016.63 1017.03 1017.31 1017.59 1017.79 1017.99 1018.27 1018.51 1018.75 1019.03 1019.31 1019.51 1019.71 1019.87 1019.99 1020.07 1020.15 1020.19 1020.35 1020.51
1010.79 1010.75 1010.67 1010.59 1010.51 1010.47 1010.43 1010.35 1010.31 1010.31 1010.31 1010.35 1010.47 1010.59 1010.59 1010.59 1010.63 1010.67 1010.75 1010.87 1011.03 1011.15 1011.31 1011.47 1011.59 1011.79 1012.03 1012.27 1012.47 1012.59 1012.75 1012.91 1013.11 1013.35 1013.59 1013.79 1014.03 1014.19 1014.31 1014.51 1014.79 1015.07 1015.27 1015.35 1015.35 1015.47 1015.71 1016.03 1016.31 1016.63 1016.95 1017.19 1017.43 1017.59 1017.83 1018.07 1018.31 1018.59 1018.87 1019.15 1019.39 1019.55 1019.63 1019.75 1019.91 1020.03 1020.15 1020.31 1020.47
1010.75 1010.71 1010.63 1010.55 1010.43 1010.35 1010.31 1010.23 1010.19 1010.19 1010.19 1010.31 1010.43 1010.55 1010.59 1010.59 1010.59 1010.63 1010.75 1010.91 1011.03 1011.07 1011.15 1011.31 1011.51 1011.71 1011.95 1012.19 1012.43 1012.59 1012.79 1012.99 1013.15 1013.43 1013.67 1013.91 1014.07 1014.27 1014.43 1014.55 1014.75 1015.03 1015.31 1015.55 1015.55 1015.59 1015.75 1016.03 1016.39 1016.71 1016.95 1017.15 1017.39 1017.59 1017.83 1018.03 1018.23 1018.51 1018.79 1019.07 1019.31 1019.43 1019.51 1019.63 1019.83 1019.95 1020.03 1020.27 1020.47
1010.67 1010.63 1010.59 1010.51 1010.43 1010.31 1010.27 1010.19 1010.15 1010.11 1010.15 1010.27 1010.39 1010.47 1010.51 1010.51 1010.55 1010.59 1010.71 1010.79 1010.87 1011.03 1011.15 1011.31 1011.47 1011.67 1011.91 1012.15 1012.35 1012.59 1012.79 1013.03 1013.23 1013.47 1013.75 1013.99 1014.19 1014.35 1014.51 1014.67 1014.83 1015.03 1015.31 1015.55 1015.63 1015.75 1015.87 1016.15 1016.43 1016.75 1016.99 1017.19 1017.47 1017.71 1017.91 1018.11 1018.27 1018.47 1018.75 1019.03 1019.23 1019.35 1019.47 1019.59 1019.79 1019.95 1020.11 1020.31 1020.55
1010.59 1010.59 1010.51 1010.47 1010.43 1010.31 1010.23 1010.19 1010.11 1010.11 1010.19 1010.27 1010.31 1010.35 1010.35 1010.43 1010.47 1010.59 1010.63 1010.71 1010.87 1011.07 1011.23 1011.35 1011.47 1011.71 1011.91 1012.15 1012.31 1012.59 1012.83 1013.07 1013.31 1013.51 1013.75 1014.03 1014.19 1014.39 1014.59 1014.75 1014.91 1015.07 1015.27 1015.47 1015.59 1015.79 1016.03 1016.19 1016.43 1016.71 1016.99 1017.23 1017.51 1017.79 1018.03 1018.27 1018.39 1018.55 1018.75 1018.95 1019.15 1019.31 1019.47 1019.63 1019.79 1019.99 1020.19 1020.47 1020.67
1010.59 1010.51 1010.47 1010.43 1010.35 1010.31 1010.19 1010.15 1010.15 1010.15 1010.19 1010.19 1010.23 1010.23 1010.23 1010.31 1010.43 1010.51 1010.63 1010.75 1010.95 1011.11 1011.23 1011.35 1011.47 1011.67 1011.87 1012.15 1012.31 1012.59 1012.87 1013.11 1013.35 1013.59 1013.83 1014.03 1014.27 1014.43 1014.59 1014.79 1014.99 1015.15 1015.31 1015.47 1015.59 1015.83 1016.03 1016.23 1016.43 1016.63 1016.87 1017.19 1017.47 1017.79 1018.07 1018.31 1018.47 1018.59 1018.71 1018.87 1019.11 1019.31 1019.47 1019.63 1019.83 1020.03 1020.31 1020.55 1020.79
1010.47 1010.43 1010.39 1010.31 1010.31 1010.27 1010.19 1010.15 1010.15 1010.15 1010.15 1010.11 1010.11 1010.15 1010.19 1010.31 1010.47 1010.55 1010.67 1010.75 1010.91 1011.07 1011.19 1011.31 1011.47 1011.71 1011.91 1012.19 1012.39 1012.67 1012.95 1013.15 1013.43 1013.67 1013.87 1014.07 1014.23 1014.43 1014.63 1014.83 1015.03 1015.23 1015.43 1015.59 1015.71 1015.83 1016.03 1016.23 1016.43 1016.63 1016.87 1017.15 1017.43 1017.75 1018.03 1018.31 1018.55 1018.71 1018.83 1018.99 1019.19 1019.39 1019.59 1019.71 1019.87 1020.11 1020.31 1020.59 1020.79
1010.47 1010.39 1010.31 1010.31 1010.23 1010.19 1010.19 1010.19 1010.19 1010.19 1010.15 1010.11 1010.15 1010.19 1010.27 1010.35 1010.47 1010.55 1010.59 1010.67 1010.87 1011.03 1011.15 1011.31 1011.51 1011.75 1011.99 1012.19 1012.47 1012.79 1013.03 1013.31 1013.55 1013.79 1014.03 1014.19 1014.35 1014.51 1014.67 1014.87 1015.07 1015.31 1015.51 1015.71 1015.83 1015.91 1016.03 1016.23 1016.51 1016.75 1016.95 1017.19 1017.47 1017.75 1018.03 1018.27 1018.51 1018.75 1018.95 1019.15 1019.31 1019.47 1019.67 1019.87 1020.03 1020.19 1020.35 1020.51 1020.67
1010.59 1010.47 1010.35 1010.31 1010.19 1010.19 1010.19 1010.19 1010.19 1010.19 1010.19 1010.19 1010.23 1010.31 1010.35 1010.39 1010.47 1010.51 1010.59 1010.67 1010.87 1011.03 1011.15 1011.31 1011.55 1011.75 1012.03 1012.31 1012.59 1012.87 1013.15 1013.43 1013.71 1013.95 1014.19 1014.31 1014.47 1014.63 1014.75 1014.95 1015.11 1015.35 1015.59 1015.79 1015.91 1016.03 1016.19 1016.39 1016.63 1016.87 1017.11 1017.39 1017.59 1017.87 1018.11 1018.31 1018.55 1018.75 1019.03 1019.23 1019.43 1019.59 1019.79 1019.99 1020.19 1020.27 1020.35 1020.47 1020.59
1010.67 1010.55 1010.43 1010.31 1010.23 1010.19 1010.15 1010.19 1010.19 1010.23 1010.27 1010.31 1010.35 1010.39 1010.43 1010.43 1010.47 1010.51 1010.63 1010.75 1010.95 1011.11 1011.27 1011.39 1011.59 1011.87 1012.11 1012.39 1012.67 1012.99 1013.27 1013.55 1013.79 1014.03 1014.23 1014.43 1014.59 1014.75 1014.91 1015.07 1015.27 1015.47 1015.71 1015.87 1016.03 1016.19 1016.31 1016.51 1016.75 1016.99 1017.23 1017.51 1017.75 1018.03 1018.23 1018.47 1018.59 1018.83 1019.07 1019.31 1019.51 1019.67 1019.87 1020.07 1020.23 1020.35 1020.43 1020.51 1020.67
1010.75 1010.63 1010.55 1010.43 1010.31 1010.19 1010.15 1010.19 1010.23 1010.31 1010.39 1010.43 1010.47 1010.47 1010.47 1010.47 1010.47 1010.59 1010.71 1010.87 1011.03 1011.23 1011.43 1011.59 1011.75 1011.95 1012.19 1012.47 1012.79 1013.07 1013.39 1013.63 1013.87 1014.07 1014.27 1014.47 1014.71 1014.87 1015.03 1015.19 1015.39 1015.59 1015.79 1015.99 1016.15 1016.31 1016.47 1016.67 1016.87 1017.11 1017.35 1017.67 1017.91 1018.19 1018.35 1018.55 1018.75 1018.91 1019.15 1019.39 1019.59 1019.79 1019.99 1020.15 1020.31 1020.43 1020.51 1020.63 1020.79
1010.79 1010.75 1010.67 1010.55 1010.39 1010.27 1010.19 1010.19 1010.31 1010.43 1010.55 1010.59 1010.59 1010.63 1010.63 1010.63 1010.67 1010.75 1010.87 1011.03 1011.23 1011.43 1011.59 1011.75 1011.91 1012.15 1012.39 1012.67 1012.91 1013.19 1013.47 1013.71 1013.91 1014.11 1014.31 1014.55 1014.75 1014.99 1015.15 1015.31 1015.55 1015.75 1015.91 1016.11 1016.31 1016.47 1016.63 1016.83 1017.03 1017.23 1017.47 1017.75 1018.03 1018.27 1018.47 1018.63 1018.83 1019.03 1019.23 1019.47 1019.71 1019.91 1020.07 1020.19 1020.31 1020.43 1020.55 1020.75 1020.91
1010.87 1010.75 1010.71 1010.59 1010.47 1010.35 1010.23 1010.23 1010.31 1010.43 1010.59 1010.71 1010.83 1010.87 1010.91 1010.95 1010.95 1010.99 1011.11 1011.31 1011.47 1011.59 1011.75 1011.95 1012.19 1012.39 1012.59 1012.87 1013.15 1013.31 1013.51 1013.75 1013.99 1014.19 1014.43 1014.67 1014.87 1015.07 1015.27 1015.47 1015.67 1015.87 1016.03 1016.23 1016.43 1016.63 1016.79 1016.99 1017.15 1017.31 1017.55 1017.83 1018.11 1018.35 1018.59 1018.75 1018.91 1019.11 1019.31 1019.59 1019.87 1020.03 1020.19 1020.31 1020.35 1020.43 1020.59 1020.75 1020.99
1010.99 1010.87 1010.79 1010.75 1010.63 1010.51 1010.39 1010.23 1010.19 1010.31 1010.55 1010.83 1011.03 1011.19 1011.27 1011.27 1011.31 1011.31 1011.43 1011.59 1011.75 1011.87 1012.03 1012.23 1012.43 1012.63 1012.87 1013.11 1013.31 1013.51 1013.67 1013.91 1014.15 1014.31 1014.59 1014.79 1015.03 1015.23 1015.43 1015.63 1015.83 1015.99 1016.19 1016.35 1016.59 1016.79 1016.99 1017.15 1017.31 1017.47 1017.67 1017.91 1018.19 1018.47 1018.67 1018.83 1019.03 1019.23 1019.47 1019.71 1019.95 1020.15 1020.27 1020.31 1020.39 1020.43 1020.55 1020.75 1020.95
1011.15 1011.07 1010.99 1010.91 1010.87 1010.75 1010.59 1010.39 1010.19 1010.23 1010.47 1010.87 1011.15 1011.43 1011.55 1011.59 1011.63 1011.71 1011.75 1011.87 1011.99 1012.19 1012.31 1012.47 1012.67 1012.87 1013.11 1013.31 1013.51 1013.67 1013.87 1014.11 1014.31 1014.55 1014.75 1014.95 1015.15 1015.39 1015.59 1015.83 1016.03 1016.19 1016.35 1016.59 1016.75 1016.99 1017.15 1017.35 1017.51 1017.67 1017.83 1018.03 1018.31 1018.55 1018.75 1018.87 1019.11 1019.35 1019.59 1019.83 1020.03 1020.19 1020.31 1020.35 1020.43 1020.47 1020.59 1020.75 1020.95
1011.39 1011.31 1011.23 1011.15 1011.11 1011.03 1010.87 1010.75 1010.55 1010.47 1010.59 1010.87 1011.15 1011.47 1011.75 1011.95 1012.03 1012.11 1012.19 1012.23 1012.31 1012.39 1012.55 1012.71 1012.91 1013.11 1013.31 1013.51 1013.71 1013.87 1014.07 1014.27 1014.47 1014.75 1014.91 1015.15 1015.31 1015.55 1015.79 1016.03 1016.19 1016.39 1016.59 1016.75 1016.95 1017.15 1017.31 1017.55 1017.75 1017.87 1018.03 1018.27 1018.47 1018.71 1018.91 1019.07 1019.31 1019.51 1019.75 1019.95 1020.15 1020.27 1020.35 1020.43 1020.47 1020.51 1020.63 1020.75 1020.99
1011.63 1011.55 1011.47 1011.39 1011.35 1011.27 1011.19 1011.15 1011.11 1011.03 1010.95 1011.03 1011.23 1011.59 1011.95 1012.27 1012.43 1012.55 1012.59 1012.67 1012.67 1012.71 1012.79 1012.95 1013.15 1013.35 1013.51 1013.71 1013.87 1014.07 1014.27 1014.47 1014.71 1014.91 1015.11 1015.31 1015.55 1015.75 1015.95 1016.19 1016.43 1016.59 1016.79 1016.99 1017.15 1017.35 1017.55 1017.75 1017.99 1018.15 1018.31 1018.51 1018.71 1018.91 1019.15 1019.31 1019.51 1019.71 1019.91 1020.07 1020.23 1020.39 1020.47 1020.55 1020.55 1020.63 1020.75 1020.91 1021.15
1011.87 1011.75 1011.71 1011.59 1011.59 1011.59 1011.59 1011.59 1011.59 1011.55 1011.43 1011.31 1011.43 1011.75 1012.19 1012.59 1012.79 1012.91 1012.99 1013.03 1013.07 1013.11 1013.19 1013.31 1013.47 1013.63 1013.79 1013.95 1014.11 1014.31 1014.55 1014.75 1014.91 1015.11 1015.31 1015.55 1015.75 1015.95 1016.19 1016.39 1016.59 1016.83 1017.03 1017.23 1017.43 1017.59 1017.83 1018.03 1018.23 1018.39 1018.55 1018.75 1018.91 1019.15 1019.35 1019.55 1019.75 1019.91 1020.11 1020.27 1020.43 1020.51 1020.59 1020.67 1020.71 1020.79 1020.95 1021.11 1021.31
1012.03 1011.99 1011.91 1011.87 1011.87 1011.91 1011.95 1011.95 1011.95 1011.95 1011.87 1011.79 1011.87 1012.15 1012.59 1012.91 1013.11 1013.23 1013.31 1013.39 1013.47 1013.51 1013.59 1013.71 1013.83 1013.95 1014.11 1014.23 1014.43 1014.63 1014.87 1015.03 1015.15 1015.35 1015.55 1015.75 1015.95 1016.19 1016.43 1016.59 1016.79 1017.03 1017.23 1017.47 1017.67 1017.87 1018.03 1018.23 1018.47 1018.63 1018.79 1018.95 1019.15 1019.31 1019.55 1019.75 1019.91 1020.07 1020.27 1020.43 1020.55 1020.67 1020.75 1020.75 1020.87 1021.03 1021.15 1021.31 1021.47
1012.27 1012.19 1012.11 1012.11 1012.19 1012.23 1012.27 1012.31 1012.31 1012.31 1012.31 1012.35 1012.47 1012.67 1012.99 1013.19 1013.35 1013.47 1013.55 1013.67 1013.75 1013.87 1013.95 1014.03 1014.19 1014.31 1014.43 1014.59 1014.75 1014.91 1015.11 1015.31 1015.47 1015.59 1015.79 1016.03 1016.23 1016.47 1016.63 1016.87 1017.03 1017.23 1017.43 1017.63 1017.87 1018.07 1018.27 1018.47 1018.67 1018.83 1019.03 1019.15 1019.31 1019.55 1019.75 1019.91 1020.07 1020.27 1020.43 1020.55 1020.67 1020.75 1020.87 1020.95 1021.07 1021.23 1021.39 1021.51 1021.63
1012.51 1012.47 1012.43 1012.43 1012.43 1012.47 1012.55 1012.59 1012.63 1012.71 1012.79 1012.91 1013.07 1013.19 1013.35 1013.47 1013.59 1013.67 1013.79 1013.91 1014.07 1014.19 1014.31 1014.43 1014.59 1014.67 1014.79 1014.91 1015.03 1015.15 1015.35 1015.59 1015.75 1015.91 1016.11 1016.31 1016.47 1016.71 1016.87 1017.07 1017.27 1017.47 1017.67 1017.87 1018.03 1018.23 1018.43 1018.63 1018.83 1019.03 1019.19 1019.35 1019.51 1019.71 1019.87 1020.03 1020.19 1020.39 1020.51 1020.63 1020.75 1020.87 1021.03 1021.19 1021.31 1021.47 1021.59 1021.71 1021.79
1012.87 1012.79 1012.75 1012.75 1012.75 1012.75 1012.75 1012.87 1012.95 1013.07 1013.23 1013.39 1013.51 1013.59 1013.67 1013.75 1013.87 1013.95 1014.11 1014.23 1014.39 1014.51 1014.63 1014.75 1014.91 1015.03 1015.15 1015.23 1015.35 1015.47 1015.59 1015.79 1015.99 1016.19 1016.39 1016.59 1016.75 1016.91 1017.11 1017.31 1017.47 1017.71 1017.91 1018.07 1018.23 1018.39 1018.55 1018.75 1018.95 1019.15 1019.35 1019.55 1019.75 1019.87 1020.03 1020.19 1020.31 1020.47 1020.59 1020.71 1020.87 1021.03 1021.23 1021.39 1021.51 1021.59 1021.71 1021.79 1021.87
1013.23 1013.15 1013.15 1013.15 1013.15 1013.15 1013.15 1013.19 1013.31 1013.43 1013.59 1013.71 1013.79 1013.87 1013.95 1014.03 1014.15 1014.27 1014.47 1014.59 1014.71 1014.83 1014.95 1015.07 1015.23 1015.35 1015.47 1015.59 1015.71 1015.79 1015.91 1016.03 1016.19 1016.39 1016.59 1016.83 1016.99 1017.15 1017.31 1017.51 1017.71 1017.91 1018.11 1018.27 1018.35 1018.47 1018.63 1018.79 1019.03 1019.23 1019.47 1019.71 1019.87 1020.07 1020.19 1020.35 1020.47 1020.55 1020.67 1020.79 1020.99 1021.15 1021.35 1021.47 1021.59 1021.71 1021.79 1021.87 1021.91
1013.59 1013.55 1013.55 1013.59 1013.59 1013.59 1013.63 1013.71 1013.75 1013.83 1013.91 1013.99 1014.07 1014.15 1014.23 1014.31 1014.47 1014.59 1014.71 1014.87 1015.03 1015.15 1015.27 1015.35 1015.51 1015.63 1015.75 1015.87 1015.99 1016.11 1016.23 1016.39 1016.47 1016.59 1016.79 1016.99 1017.15 1017.35 1017.51 1017.67 1017.87 1018.03 1018.19 1018.31 1018.43 1018.59 1018.75 1018.91 1019.15 1019.35 1019.59 1019.79 1019.99 1020.19 1020.31 1020.51 1020.59 1020.71 1020.79 1020.91 1021.07 1021.23 1021.35 1021.51 1021.63 1021.75 1021.87 1021.95 1022.03
1013.99 1013.95 1013.95 1013.99 1013.95 1014.03 1014.11 1014.19 1014.27 1014.31 1014.35 1014.35 1014.39 1014.47 1014.55 1014.63 1014.75 1014.87 1014.99 1015.15 1015.31 1015.39 1015.47 1015.59 1015.75 1015.87 1015.99 1016.11 1016.23 1016.35 1016.55 1016.71 1016.79 1016.87 1017.03 1017.15 1017.31 1017.47 1017.59 1017.79 1017.99 1018.15 1018.27 1018.35 1018.51 1018.67 1018.87 1019.07 1019.31 1019.51 1019.75 1019.95 1020.15 1020.31 1020.47 1020.59 1020.75 1020.87 1020.95 1021.03 1021.15 1021.27 1021.39 1021.55 1021.71 1021.87 1021.99 1022.03 1022.07
1014.39 1014.35 1014.35 1014.35 1014.39 1014.47 1014.55 1014.59 1014.67 1014.71 1014.75 1014.79 1014.83 1014.87 1014.91 1014.99 1015.03 1015.15 1015.27 1015.39 1015.51 1015.59 1015.75 1015.87 1015.99 1016.11 1016.27 1016.35 1016.51 1016.63 1016.75 1016.87 1016.99 1017.11 1017.19 1017.31 1017.43 1017.59 1017.75 1017.91 1018.03 1018.19 1018.31 1018.47 1018.63 1018.83 1019.03 1019.23 1019.47 1019.71 1019.87 1020.07 1020.31 1020.47 1020.59 1020.75 1020.87 1021.03 1021.11 1021.19 1021.27 1021.35 1021.47 1021.63 1021.83 1021.95 1022.07 1022.15 1022.15
1014.83 1014.79 1014.75 1014.75 1014.79 1014.87 1014.91 1014.99 1015.03 1015.07 1015.15 1015.23 1015.23 1015.27 1015.31 1015.35 1015.43 1015.51 1015.59 1015.67 1015.75 1015.87 1015.95 1016.07 1016.19 1016.31 1016.43 1016.59 1016.67 1016.79 1016.91 1017.03 1017.15 1017.27 1017.39 1017.47 1017.59 1017.75 1017.87 1018.03 1018.19 1018.31 1018.47 1018.59 1018.79 1018.99 1019.19 1019.43 1019.59 1019.83 1020.03 1020.27 1020.47 1020.59 1020.75 1020.87 1021.03 1021.11 1021.19 1021.31 1021.39 1021.47 1021.63 1021.79 1021.91 1022.03 1022.11 1022.19 1022.19
1015.19 1015.15 1015.15 1015.15 1015.15 1015.19 1015.27 1015.31 1015.35 1015.43 1015.47 1015.55 1015.59 1015.59 1015.67 1015.75 1015.79 1015.83 1015.87 1015.91 1015.99 1016.03 1016.15 1016.19 1016.31 1016.39 1016.51 1016.63 1016.75 1016.91 1017.03 1017.19 1017.31 1017.43 1017.55 1017.63 1017.75 1017.91 1018.03 1018.19 1018.31 1018.47 1018.59 1018.75 1018.95 1019.15 1019.35 1019.55 1019.75 1019.99 1020.19 1020.35 1020.55 1020.75 1020.87 1020.99 1021.11 1021.19 1021.31 1021.47 1021.59 1021.71 1021.83 1021.95 1022.03 1022.11 1022.15 1022.19 1022.19
1015.55 1015.51 1015.47 1015.51 1015.55 1015.59 1015.63 1015.71 1015.71 1015.75 1015.75 1015.83 1015.91 1015.95 1016.03 1016.03 1016.15 1016.19 1016.19 1016.19 1016.27 1016.31 1016.35 1016.39 1016.47 1016.55 1016.67 1016.75 1016.91 1017.07 1017.19 1017.31 1017.47 1017.59 1017.71 1017.83 1017.95 1018.11 1018.27 1018.43 1018.59 1018.71 1018.87 1019.03 1019.19 1019.43 1019.59 1019.79 1020.03 1020.19 1020.35 1020.55 1020.71 1020.87 1020.99 1021.11 1021.19 1021.31 1021.47 1021.59 1021.75 1021.87 1021.95 1022.07 1022.11 1022.19 1022.19 1022.23 1022.27
1015.87 1015.87 1015.87 1015.87 1015.91 1015.99 1016.03 1016.03 1016.03 1016.03 1016.07 1016.15 1016.19 1016.27 1016.31 1016.39 1016.47 1016.51 1016.55 1016.55 1016.55 1016.59 1016.63 1016.71 1016.75 1016.87 1016.95 1017.07 1017.15 1017.27 1017.39 1017.47 1017.67 1017.75 1017.87 1018.03 1018.15 1018.31 1018.47 1018.67 1018.87 1019.03 1019.23 1019.39 1019.59 1019.75 1019.87 1020.07 1020.27 1020.43 1020.55 1020.67 1020.87 1021.03 1021.15 1021.31 1021.39 1021.51 1021.63 1021.75 1021.87 1021.95 1022.03 1022.11 1022.19 1022.27 1022.31 1022.31 1022.31
1016.15 1016.19 1016.19 1016.19 1016.27 1016.31 1016.35 1016.35 1016.39 1016.39 1016.39 1016.43 1016.51 1016.59 1016.63 1016.71 1016.75 1016.83 1016.83 1016.83 1016.87 1016.91 1016.99 1017.03 1017.07 1017.15 1017.23 1017.31 1017.39 1017.47 1017.59 1017.75 1017.87 1017.99 1018.11 1018.23 1018.35 1018.51 1018.71 1018.91 1019.15 1019.35 1019.55 1019.67 1019.83 1019.99 1020.15 1020.31 1020.47 1020.63 1020.75 1020.91 1021.07 1021.23 1021.35 1021.47 1021.59 1021.71 1021.83 1021.95 1022.03 1022.11 1022.19 1022.23 1022.31 1022.35 1022.39 1022.39 1022.39
1016.43 1016.47 1016.47 1016.47 1016.55 1016.59 1016.63 1016.63 1016.67 1016.71 1016.71 1016.75 1016.83 1016.87 1016.91 1016.99 1017.03 1017.11 1017.15 1017.15 1017.23 1017.27 1017.31 1017.35 1017.39 1017.47 1017.51 1017.55 1017.59 1017.71 1017.87 1017.99 1018.11 1018.27 1018.39 1018.51 1018.63 1018.75 1018.95 1019.15 1019.43 1019.59 1019.75 1019.87 1020.03 1020.19 1020.35 1020.51 1020.67 1020.83 1020.99 1021.15 1021.31 1021.47 1021.55 1021.67 1021.75 1021.87 1021.99 1022.11 1022.19 1022.27 1022.35 1022.43 1022.47 1022.47 1022.47 1022.51 1022.51
1016.63 1016.67 1016.71 1016.75 1016.79 1016.83 1016.87 1016.87 1016.87 1016.91 1016.95 1017.03 1017.11 1017.19 1017.27 1017.31 1017.35 1017.43 1017.47 1017.55 1017.59 1017.63 1017.71 1017.75 1017.75 1017.75 1017.79 1017.87 1017.87 1017.99 1018.15 1018.31 1018.47 1018.59 1018.71 1018.75 1018.87 1018.99 1019.19 1019.43 1019.63 1019.79 1019.95 1020.07 1020.27 1020.43 1020.59 1020.71 1020.87 1021.03 1021.19 1021.31 1021.47 1021.63 1021.75 1021.83 1021.91 1022.03 1022.15 1022.27 1022.35 1022.47 1022.51 1022.55 1022.59 1022.59 1022.59 1022.63 1022.63
1016.87 1016.87 1016.95 1017.03 1017.03 1017.03 1017.07 1017.07 1017.11 1017.15 1017.19 1017.31 1017.43 1017.51 1017.59 1017.67 1017.75 1017.79 1017.87 1017.91 1017.91 1017.99 1018.03 1018.03 1018.03 1018.11 1018.15 1018.19 1018.27 1018.35 1018.47 1018.59 1018.75 1018.87 1018.95 1019.03 1019.07 1019.19 1019.39 1019.59 1019.83 1020.03 1020.15 1020.31 1020.47 1020.63 1020.75 1020.87 1021.03 1021.19 1021.35 1021.51 1021.67 1021.75 1021.87 1021.99 1022.07 1022.19 1022.27 1022.31 1022.43 1022.51 1022.59 1022.63 1022.63 1022.71 1022.75 1022.71 1022.75
1017.19 1017.15 1017.19 1017.23 1017.27 1017.31 1017.31 1017.31 1017.35 1017.43 1017.51 1017.63 1017.75 1017.83 1017.91 1018.03 1018.11 1018.19 1018.19 1018.19 1018.23 1018.27 1018.31 1018.35 1018.39 1018.43 1018.47 1018.55 1018.67 1018.75 1018.83 1018.87 1018.99 1019.07 1019.19 1019.31 1019.39 1019.51 1019.67 1019.83 1020.03 1020.19 1020.35 1020.51 1020.67 1020.83 1020.99 1021.11 1021.23 1021.35 1021.51 1021.63 1021.75 1021.87 1021.99 1022.03 1022.15 1022.19 1022.31 1022.35 1022.47 1022.59 1022.67 1022.75 1022.75 1022.75 1022.75 1022.75 1022.75
1017.47 1017.47 1017.47 1017.51 1017.55 1017.55 1017.59 1017.59 1017.67 1017.75 1017.83 1017.91 1018.03 1018.11 1018.23 1018.31 1018.43 1018.47 1018.51 1018.51 1018.55 1018.59 1018.63 1018.67 1018.75 1018.75 1018.79 1018.83 1018.91 1019.03 1019.15 1019.19 1019.27 1019.35 1019.51 1019.63 1019.75 1019.87 1019.99 1020.11 1020.27 1020.43 1020.55 1020.71 1020.87 1020.99 1021.11 1021.23 1021.31 1021.47 1021.59 1021.71 1021.83 1021.91 1021.99 1022.07 1022.15 1022.23 1022.31 1022.43 1022.55 1022.67 1022.75 1022.83 1022.87 1022.83 1022.83 1022.79 1022.67
1017.79 1017.79 1017.83 1017.83 1017.83 1017.87 1017.91 1017.95 1018.03 1018.11 1018.15 1018.19 1018.31 1018.39 1018.47 1018.59 1018.71 1018.79 1018.87 1018.87 1018.87 1018.87 1018.87 1018.95 1019.03 1019.03 1019.07 1019.11 1019.15 1019.31 1019.47 1019.55 1019.63 1019.71 1019.83 1020.03 1020.11 1020.19 1020.27 1020.35 1020.47 1020.59 1020.67 1020.83 1020.95 1021.03 1021.15 1021.27 1021.39 1021.47 1021.59 1021.75 1021.83 1021.87 1021.99 1022.07 1022.19 1022.31 1022.43 1022.51 1022.59 1022.75 1022.83 1022.87 1022.91 1022.87 1022.87 1022.79 1022.63
1018.19 1018.19 1018.19 1018.19 1018.19 1018.23 1018.27 1018.31 1018.39 1018.47 1018.47 1018.47 1018.55 1018.67 1018.75 1018.87 1019.03 1019.11 1019.15 1019.15 1019.15 1019.15 1019.15 1019.23 1019.27 1019.31 1019.31 1019.35 1019.47 1019.59 1019.75 1019.87 1020.03 1020.11 1020.19 1020.27 1020.35 1020.47 1020.51 1020.59 1020.71 1020.75 1020.75 1020.87 1020.95 1021.03 1021.15 1021.27 1021.35 1021.47 1021.59 1021.75 1021.87 1021.95 1022.03 1022.15 1022.23 1022.35 1022.51 1022.59 1022.67 1022.75 1022.83 1022.91 1022.95 1022.95 1022.91 1022.87 1022.83
1018.47 1018.47 1018.47 1018.47 1018.51 1018.51 1018.55 1018.59 1018.71 1018.75 1018.75 1018.75 1018.83 1018.91 1019.03 1019.15 1019.27 1019.35 1019.43 1019.43 1019.43 1019.47 1019.47 1019.51 1019.59 1019.59 1019.63 1019.75 1019.83 1019.99 1020.15 1020.27 1020.43 1020.51 1020.55 1020.59 1020.63 1020.71 1020.75 1020.83 1020.87 1020.95 1020.99 1020.91 1020.91 1021.03 1021.15 1021.27 1021.39 1021.51 1021.67 1021.83 1021.95 1022.03 1022.07 1022.15 1022.27 1022.39 1022.51 1022.67 1022.75 1022.83 1022.87 1022.95 1022.99 1023.03 1023.03 1023.03 1023.03
Wind_Speed
5 5 6 6 5 6 6 7 7 7 6 7 7 8 8 8 8 8 8 7 7 7 7 6 6 5 5 7 8 9 9 10 10 10 10 10 10 11 11 11 11 12 12 12 12 11 11 11 10 8 7 6 7 6 6 6 7 7 7 7 6 6 7 7 6 7 7 6 5
5 5 6 6 6 6 6 6 7 7 7 7 7 8 8 8 8 8 8 8 7 7 6 5 5 6 7 8 8 9 9 10 10 10 9 10 10 10 11 10 11 12 13 14 13 12 11 12 10 9 8 7 8 8 8 7 8 9 9 9 7 6 6 7 7 7 7 7 6
4 4 5 6 7 7 7 7 8 9 9 8 7 7 7 7 7 7 7 7 7 6 5 4 5 7 8 9 8 8 9 10 10 9 8 8 9 9 9 9 9 11 12 12 13 12 11 11 9 8 7 7 8 8 8 8 9 10 10 10 7 6 6 6 6 6 6 6 6
4 4 5 6 8 9 9 8 9 10 10 8 7 7 6 6 6 6 6 6 6 5 5 5 6 7 8 9 9 9 9 9 9 9 8 7 8 9 9 10 10 10 10 11 12 12 12 11 8 6 6 7 8 8 7 8 9 9 8 8 7 6 6 6 6 6 5 6 6
3 4 5 6 8 9 9 9 10 10 9 7 6 6 6 6 6 5 5 5 5 5 6 6 6 6 7 9 10 10 9 9 9 8 8 8 8 9 9 11 11 11 10 11 11 12 12 11 7 6 6 7 6 6 7 9 10 9 7 6 6 6 6 6 6 6 6 6 6
3 4 5 6 7 8 9 9 10 10 8 7 7 7 7 7 7 7 6 6 6 6 6 7 6 6 7 9 10 10 9 8 8 8 9 9 9 9 10 11 11 11 11 11 11 11 11 9 6 5 5 5 5 6 7 9 9 9 8 6 6 6 6 6 5 5 6 6 7
4 4 5 6 7 8 8 9 9 9 8 7 8 9 10 9 9 8 8 6 5 5 5 6 6 7 8 9 9 9 9 8 8 9 10 9 10 10 11 11 12 12 11 11 11 11 9 8 6 6 5 5 5 6 8 8 8 8 8 7 6 6 6 6 5 5 7 9 9
4 4 4 5 6 8 9 9 8 8 7 7 8 10 11 10 10 9 8 6 5 5 5 5 6 8 8 9 9 9 9 10 9 9 10 10 11 11 11 11 11 11 11 11 11 10 9 7 6 6 6 5 5 7 8 9 8 8 8 8 6 6 6 6 6 7 8 10 10
5 4 4 5 5 7 8 8 8 8 8 8 9 9 9 9 9 8 7 6 5 6 6 6 7 8 9 9 10 10 10 10 10 10 9 10 11 11 11 11 11 11 10 9 10 10 9 6 5 5 5 5 6 7 9 10 9 8 8 7 7 6 6 6 7 8 9 11 11
6 6 5 5 5 6 6 7 7 7 8 8 8 8 7 7 7 7 7 5 5 6 6 6 7 9 9 10 10 9 9 9 9 9 9 9 10 10 10 10 10 10 9 8 8 8 8 6 5 5 5 6 7 9 10 10 10 9 8 6 7 8 9 8 9 10 10 10 11
7 6 5 5 5 5 5 5 5 5 6 6 6 5 5 5 6 6 5 5 6 6 7 7 8 9 9 9 9 9 9 8 8 8 9 9 9 9 9 9 10 10 9 8 7 6 6 6 6 7 7 7 8 9 10 10 10 10 9 7 9 10 10 10 9 9 9 10 11
7 6 5 4 4 3 3 3 3 3 4 4 4 4 4 5 5 5 5 5 6 6 6 7 9 9 9 9 9 9 9 9 9 9 9 9 9 9 9 9 10 10 9 8 7 6 6 6 8 9 9 9 7 7 9 11 11 11 11 10 11 11 11 10 9 8 8 9 10
5 5 5 4 2 1 0 1 1 1 2 2 2 2 3 3 4 4 5 6 6 6 6 7 8 9 9 8 9 9 9 9 9 9 9 9 9 9 9 9 9 9 9 8 7 6 7 8 9 10 11 10 8 8 9 11 11 12 12 12 11 11 11 11 10 9 9 9 10
4 4 4 3 2 1 2 2 2 2 2 2 2 1 0 1 2 3 5 6 6 6 6 6 7 7 8 9 9 9 9 9 10 10 10 9 9 9 9 9 9 9 8 7 7 8 8 9 10 11 12 11 10 10 10 11 11 11 12 12 12 11 10 10 10 10 10 10 10
4 4 3 3 2 1 2 3 3 3 3 4 4 3 3 3 3 3 4 6 6 6 6 7 7 7 8 9 9 10 10 10 10 10 10 10 9 9 9 9 9 9 8 8 8 9 9 10 11 12 12 12 12 12 11 11 11 11 11 11 11 10 10 10 10 10 10 11 10
4 4 4 4 3 1 1 3 4 4 5 5 5 5 5 4 4 4 5 6 6 6 6 7 7 8 8 9 9 10 10 9 10 10 10 9 9 9 9 9 9 9 9 9 9 9 10 10 11 11 12 13 13 13 12 12 12 11 11 11 10 10 10 10 10 10 10 10 10
5 5 5 5 4 2 1 3 4 6 7 7 7 6 5 4 4 4 5 6 6 6 7 8 8 8 8 8 8 9 9 9 9 9 9 9 9 10 9 9 9 9 10 10 10 10 10 10 10 11 12 12 12 12 12 12 11 11 11 11 10 10 10 10 10 10 10 10 9
6 5 5 5 5 4 4 5 5 7 8 9 8 7 6 5 5 5 5 6 6 8 9 9 8 8 8 8 8 7 7 8 8 8 9 9 9 10 10 10 9 10 10 10 11 11 12 11 11 11 11 11 11 11 11 11 11 11 11 10 10 9 9 9 8 8 8 8 8
6 6 6 6 6 6 6 7 7 7 8 10 9 9 8 7 6 6 6 6 6 8 9 9 9 8 8 9 8 8 7 8 9 9 9 10 10 10 10 10 10 10 10 11 11 12 12 12 11 11 11 11 10 10 10 10 10 10 10 10 9 8 8 7 7 7 7 7 7
7 7 7 7 8 8 8 8 8 8 8 10 11 11 10 9 8 7 7 7 7 8 8 9 9 9 9 9 9 9 8 8 9 10 10 10 11 11 11 11 11 11 11 11 12 12 12 11 11 11 11 12 12 11 11 11 10 10 9 8 8 8 7 7 7 7 7 7 7
7 8 8 9 9 9 9 8 9 9 10 11 12 12 11 9 9 9 8 8 8 8 8 9 9 9 9 10 10 10 9 8 10 10 11 11 11 12 11 11 11 11 11 11 12 12 12 12 12 12 12 12 12 11 11 10 10 9 9 8 7 8 8 8 8 7 7 7 6
7 8 9 9 10 10 9 9 10 10 11 11 12 11 11 10 10 10 9 9 9 9 9 9 9 10 10 10 11 10 10 9 10 10 11 11 11 11 11 11 12 12 12 12 12 12 12 12 12 12 11 11 11 11 10 10 10 9 9 9 8 8 8 8 7 7 7 6 6
8 8 8 9 10 10 10 10 10 11 11 11 11 11 11 11 11 11 10 10 10 10 10 10 10 10 10 11 11 11 11 11 11 11 11 11 12 12 11 11 12 12 12 11 11 11 12 12 11 11 11 10 11 11 10 10 10 9 9 9 9 9 8 7 7 6 6 5 4
8 8 8 8 9 10 10 10 11 11 11 10 10 10 10 11 11 11 11 11 11 11 10 9 9 10 11 11 12 12 12 13 13 13 13 12 12 12 12 11 11 10 10 9 10 10 10 10 10 10 10 10 10 9 9 9 9 9 9 9 9 8 7 6 6 5 5 4 3
9 9 9 9 9 10 10 10 11 11 11 10 10 10 11 11 11 11 11 11 11 11 11 11 11 10 10 11 12 12 12 13 14 14 13 13 13 12 11 10 9 8 8 10 13 15 14 11 10 9 8 8 9 8 8 8 9 9 8 8 8 7 7 6 5 4 4 3 3
9 9 10 10 10 11 11 11 11 11 11 11 11 11 11 11 11 11 12 12 12 12 12 11 11 10 10 10 11 12 12 12 12 13 13 13 13 12 11 9 8 7 8 12 17 18 17 16 14 11 9 8 8 8 8 7 8 8 8 8 7 7 6 5 5 4 3 3 3
9 10 10 10 11 11 11 10 10 10 11 11 11 11 11 11 11 11 12 12 12 12 11 11 11 11 10 10 12 12 12 11 11 12 13 13 13 12 11 9 8 8 10 15 18 19 18 18 16 14 11 8 8 7 7 7 7 7 7 6 6 6 6 5 5 4 4 3 3
9 9 10 11 11 11 11 11 11 11 11 11 11 11 11 11 11 11 11 11 11 11 10 10 9 9 8 9 11 12 12 11 11 11 11 12 12 12 11 9 8 9 13 18 19 19 19 18 17 15 13 10 8 7 7 7 6 6 5 5 5 5 5 5 4 4 4 4 4
9 9 10 11 11 11 10 11 11 11 11 11 11 11 11 11 11 11 11 11 11 10 9 8 7 7 8 9 10 11 11 11 10 10 11 12 12 11 11 10 10 12 16 19 19 19 18 18 17 16 14 11 7 6 5 5 5 5 5 4 4 5 5 4 4 4 4 5 5
9 9 10 10 10 10 10 10 10 10 10 10 10 10 11 11 11 11 11 11 10 9 8 8 8 8 9 10 10 10 10 10 9 10 11 12 12 12 11 11 10 13 16 19 18 18 17 17 16 15 14 12 9 6 5 5 5 5 5 4 5 5 5 5 6 5 5 5 5
9 9 9 10 10 10 10 10 10 10 9 9 10 10 10 10 10 10 9 9 9 9 9 9 9 10 10 9 9 10 10 10 10 10 11 12 12 12 11 11 11 13 15 18 18 17 17 17 16 15 14 12 9 7 5 5 5 5 5 5 6 6 6 6 6 6 5 5 4
9 9 9 10 10 9 9 9 9 9 10 10 10 10 10 9 9 8 8 8 8 9 9 9 10 10 10 10 10 10 10 10 10 10 10 11 12 12 12 12 12 13 16 18 18 18 17 17 16 15 14 12 9 7 6 6 6 6 6 7 7 7 6 5 5 5 5 4 4
9 9 9 10 10 9 9 9 9 9 10 10 10 10 9 9 8 8 8 7 8 8 9 9 10 10 10 10 10 10 10 10 11 11 11 11 12 12 13 12 12 14 16 19 18 18 17 17 16 15 14 12 9 7 7 6 6 6 6 7 7 6 6 6 5 4 4 3 3
9 9 9 10 9 9 9 9 9 9 9 10 10 9 9 8 8 8 8 8 7 7 8 8 9 9 9 9 10 10 10 10 10 10 11 11 12 12 12 10 10 13 17 19 18 18 17 16 16 15 14 12 8 7 7 7 6 6 7 7 6 5 5 4 4 3 3 2 2
8 9 9 9 9 9 9 9 9 9 10 10 10 9 9 9 9 9 8 8 8 8 7 7 8 8 9 9 10 10 11 11 11 10 10 10 11 12 12 11 11 14 18 19 18 17 16 16 15 14 13 10 7 6 7 8 7 7 7 7 6 5 4 4 3 2 2 2 2
8 9 9 9 9 9 9 9 9 9 10 10 10 9 9 9 8 8 8 9 9 8 8 8 9 9 9 9 10 10 11 11 11 11 11 11 11 12 12 12 13 15 18 18 17 16 16 15 14 13 11 8 6 6 6 6 6 6 7 6 5 4 4 3 3 2 2 1 1
8 8 8 9 9 9 9 9 9 10 10 10 10 9 9 8 8 7 7 8 8 8 9 9 9 9 10 10 9 10 10 11 11 11 11 11 11 11 11 11 12 14 16 17 16 15 15 14 14 12 10 7 6 6 6 5 5 5 6 5 5 4 3 3 2 2 1 1 0
7 8 8 8 9 9 9 9 9 10 10 9 9 9 8 8 7 7 7 7 8 8 8 9 9 9 10 10 10 10 10 10 11 11 10 10 9 9 9 10 10 12 14 15 15 14 14 13 13 12 10 7 6 6 5 5 5 5 5 4 4 3 3 2 2 2 2 2 0
8 8 8 8 9 9 9 9 9 9 9 9 9 9 8 8 7 7 6 7 7 8 8 9 9 9 9 10 10 10 10 10 10 10 9 8 8 8 8 7 7 9 12 15 14 14 13 13 13 12 10 8 6 5 5 5 5 4 4 3 3 3 2 2 1 1 2 3 3
8 8 8 8 8 9 9 9 9 8 8 9 9 8 8 8 7 7 6 6 7 7 8 9 9 9 9 10 10 10 10 10 9 9 8 8 7 7 7 5 4 6 9 13 14 14 14 13 13 12 10 7 6 5 4 4 4 4 3 2 2 2 2 2 2 2 2 3 4
7 7 8 8 8 8 9 9 8 8 8 8 8 8 8 8 7 7 6 6 7 7 8 8 9 10 10 9 9 9 9 9 9 8 8 8 7 7 6 4 4 3 4 9 13 14 13 13 13 12 10 7 5 4 4 4 4 4 3 2 2 2 2 2 2 1 2 2 2
Wind_Direction
249 251 251 247 240 235 232 231 229 226 222 218 216 214 212 213 217 219 220 219 219 217 215 212 207 201 192 188 188 188 187 184 181 178 175 174 171 169 166 163 159 156 154 152 151 150 148 149 148 149 152 154 152 151 151 152 153 151 147 146 146 147 149 151 152 148 142 134 129
246 245 246 246 240 236 233 232 231 228 225 222 220 218 215 215 217 219 220 219 219 217 213 207 197 188 183 182 183 183 183 182 179 175 172 172 171 168 165 163 162 160 158 155 154 154 154 155 153 153 155 157 155 154 155 156 154 151 150 151 152 153 155 155 154 147 138 130 127
258 252 246 243 239 235 232 231 230 229 228 226 224 222 220 219 220 220 221 219 217 212 205 198 191 182 177 177 180 181 182 182 177 172 169 170 168 165 162 159 159 160 160 158 157 156 155 154 152 152 154 157 158 156 154 154 152 151 152 155 155 156 157 156 151 142 133 125 122
266 261 253 245 239 236 233 232 231 230 229 228 225 224 223 222 222 222 220 216 211 205 198 192 186 178 174 173 177 181 182 180 173 168 166 165 164 161 157 153 155 158 161 161 159 155 152 151 148 148 151 155 157 156 154 153 153 152 153 155 154 154 153 151 146 138 130 124 121
270 264 258 253 245 241 238 237 235 233 231 228 225 224 223 223 223 221 216 210 207 201 194 186 182 176 171 172 174 177 178 174 169 165 161 159 158 156 154 153 154 157 160 163 161 156 152 150 144 142 147 152 155 155 154 152 152 151 149 149 151 150 147 142 139 135 130 127 125
286 271 263 259 253 249 246 243 240 237 234 229 226 224 224 223 221 218 215 210 204 194 185 180 177 171 166 169 171 171 170 166 164 160 156 154 154 153 153 155 156 157 159 161 160 156 152 148 141 138 141 145 145 148 151 153 152 150 148 147 149 146 142 139 135 131 127 127 129
293 279 269 263 258 254 251 248 245 241 237 231 227 225 225 224 222 219 215 207 195 184 180 181 174 167 164 167 167 166 164 161 157 155 153 152 153 154 155 156 157 157 158 158 157 155 151 145 139 138 140 140 139 145 152 157 155 152 149 148 147 142 138 136 131 126 126 130 132
297 285 274 267 261 258 256 253 249 245 239 233 229 227 226 224 222 218 212 200 187 182 181 182 169 163 162 165 164 161 158 156 154 153 152 151 152 154 154 154 155 155 155 155 154 152 150 144 140 140 141 141 140 147 154 157 156 152 148 145 140 135 133 131 127 127 129 131 131
313 304 292 279 269 263 259 257 253 247 241 237 233 230 227 224 220 215 209 196 184 180 179 174 162 158 157 160 158 156 155 154 152 152 151 151 152 153 153 152 152 152 152 152 151 149 146 140 137 138 140 141 142 147 152 154 151 148 142 136 132 128 125 124 127 129 131 132 130
317 314 309 300 284 272 265 262 257 250 245 242 238 234 227 220 216 212 206 191 177 175 174 165 156 153 154 154 152 151 150 150 148 147 148 148 150 150 151 151 150 148 147 148 146 142 137 130 129 129 131 133 139 143 147 148 144 140 134 128 127 126 126 127 130 132 133 132 130
313 312 309 304 294 285 276 268 262 255 250 247 245 236 224 215 212 207 197 177 168 169 167 156 152 150 150 149 147 146 145 145 144 144 145 146 147 147 147 147 146 144 141 141 138 134 128 124 124 125 125 126 132 138 141 142 137 133 129 127 128 128 129 132 134 135 134 132 128
314 310 307 300 297 294 287 277 271 265 260 258 252 238 223 214 205 193 177 162 159 158 155 148 147 147 146 146 144 142 141 142 143 143 144 145 145 144 143 142 140 138 137 136 133 128 124 124 125 125 125 124 127 132 136 136 133 130 129 130 131 131 133 135 135 133 130 127 124
316 314 312 308 310 323 354 327 319 311 299 284 267 246 226 211 188 170 157 151 147 144 141 140 141 141 141 141 140 139 139 140 142 142 143 144 143 141 139 137 135 133 132 130 127 124 122 124 126 127 126 125 125 128 131 132 131 130 131 132 132 133 133 134 132 128 124 121 119
324 323 321 318 334 49 84 80 63 42 21 360 341 332 348 110 127 134 137 137 134 133 133 132 132 133 134 134 134 135 137 139 141 141 140 140 138 137 136 133 132 130 127 124 121 121 123 126 128 128 128 127 127 127 128 129 129 129 130 131 131 131 130 130 128 126 123 120 119
335 333 329 326 330 16 93 102 95 79 60 42 32 29 35 45 66 91 110 120 123 125 126 126 124 124 124 127 130 133 136 138 139 138 137 135 133 132 131 129 128 126 124 122 121 122 124 126 128 129 128 128 128 128 128 127 126 126 126 127 127 128 128 128 128 127 125 124 122
345 342 338 334 325 321 119 118 109 95 80 64 48 40 39 42 55 78 97 110 114 116 116 119 119 118 119 122 127 131 133 135 134 133 131 129 129 128 126 125 124 124 122 121 121 121 123 125 126 127 127 128 128 127 127 126 124 123 123 124 125 127 129 129 128 127 127 126 124
353 350 347 344 339 348 42 85 94 93 89 81 68 57 49 46 56 73 91 105 112 115 116 117 117 118 119 121 125 127 128 129 128 127 126 125 125 123 121 120 120 120 120 121 120 121 121 121 122 123 123 124 124 125 125 124 122 122 123 124 127 129 130 130 127 126 125 125 123
2 0 0 0 2 13 32 51 69 82 87 87 79 69 59 51 55 66 80 95 107 115 117 117 116 118 119 121 122 122 122 123 122 121 120 120 119 117 116 115 115 116 117 118 119 120 120 119 118 117 116 117 117 118 119 119 118 120 122 124 125 125 125 123 122 121 121 121 119
12 13 15 17 20 28 38 48 58 70 79 84 82 75 67 59 60 64 72 81 96 107 113 114 114 115 116 118 116 115 115 116 116 115 114 114 113 112 112 112 112 113 114 115 116 116 116 116 114 113 111 111 111 112 112 113 114 116 117 117 116 115 113 112 111 110 111 112 114
25 27 29 31 35 39 45 50 56 62 69 76 77 76 72 67 67 70 74 77 86 95 102 107 109 110 110 110 108 106 106 107 110 110 110 109 109 109 109 110 110 111 111 112 112 113 113 113 112 111 110 110 110 110 109 109 109 108 108 107 106 104 104 102 101 101 102 105 111
36 39 42 45 47 48 50 53 57 61 64 68 73 76 77 75 75 75 77 79 82 86 91 96 100 103 103 103 103 102 102 102 105 106 106 106 106 106 107 108 108 109 109 110 110 111 111 112 112 112 111 109 108 108 108 107 105 103 102 100 99 98 98 97 97 98 101 105 112
44 48 52 54 56 56 56 56 59 62 64 66 70 75 79 81 80 79 79 79 79 81 83 86 90 93 97 99 101 101 101 100 100 101 102 103 103 103 104 105 106 107 108 109 110 111 111 111 111 110 109 106 106 106 106 106 105 103 101 100 98 96 94 94 95 98 101 107 114
48 54 58 62 64 65 65 65 65 66 67 69 72 76 80 82 82 81 80 79 80 80 81 82 84 88 92 95 98 100 100 98 97 96 97 99 100 100 101 102 103 105 106 108 110 111 110 109 108 107 106 105 105 106 106 107 107 106 105 103 100 97 95 95 97 100 105 111 116
49 54 58 63 67 70 72 73 73 73 74 75 78 80 82 83 82 82 81 80 81 81 82 84 84 87 89 92 95 97 98 99 99 98 97 98 99 99 100 99 100 102 104 107 111 112 112 110 108 106 105 105 106 107 108 109 109 110 109 107 105 103 101 102 104 107 112 116 117
52 55 58 61 64 67 71 75 78 80 81 82 83 83 83 83 83 84 84 84 84 85 86 88 88 88 89 91 93 95 97 100 101 102 102 101 101 101 100 100 101 104 108 114 116 114 112 111 110 108 107 107 107 108 108 108 110 111 112 112 112 112 111 112 112 112 111 109 103
55 58 60 61 62 64 66 70 75 79 82 84 84 84 84 85 86 87 88 88 89 90 90 91 91 92 92 94 94 95 96 98 102 105 106 106 106 105 105 105 108 110 115 120 119 117 114 111 110 109 108 107 108 108 107 106 107 109 111 114 117 118 120 119 116 109 100 90 82
56 59 62 64 65 66 67 68 71 74 77 80 82 84 85 87 89 90 91 92 92 93 92 92 93 94 95 95 96 97 98 100 104 106 108 110 111 111 110 109 112 116 120 123 121 119 116 114 112 110 108 106 106 106 106 105 105 106 108 111 114 115 115 114 110 103 94 84 79
55 59 63 67 68 69 70 71 72 73 75 77 80 83 86 88 90 92 93 94 94 94 93 93 95 96 97 97 100 102 105 107 108 109 110 111 112 112 112 112 115 119 122 123 121 119 118 116 114 111 109 105 103 103 104 105 105 105 105 105 104 102 101 101 100 99 95 91 86
56 60 64 68 71 72 73 74 75 77 78 79 82 84 86 88 91 93 95 96 96 97 98 99 102 103 105 108 109 110 111 111 112 111 111 112 111 111 112 114 116 120 122 122 120 119 118 117 115 112 109 105 103 102 103 104 105 103 99 95 92 92 94 96 100 102 101 99 95
57 61 65 69 71 73 75 76 79 81 83 84 85 86 88 89 91 94 96 98 100 102 106 110 112 112 113 114 113 113 112 111 111 111 112 113 112 111 111 113 116 119 120 120 118 116 115 113 111 108 105 103 102 101 100 101 100 98 94 90 91 93 97 101 104 105 105 103 101
58 62 66 69 71 73 75 78 81 84 86 87 87 88 88 90 91 94 97 100 103 105 108 108 110 110 110 110 110 110 110 109 109 110 111 112 111 110 109 110 113 114 115 115 112 110 108 106 104 103 102 101 99 98 97 97 95 95 95 97 100 102 104 105 104 104 103 102 100
59 63 66 68 70 72 74 77 80 82 85 86 87 87 87 88 90 91 94 97 100 102 103 102 104 105 106 105 105 105 106 107 108 109 109 110 111 110 110 110 110 111 111 110 107 105 103 101 100 99 99 98 96 94 93 94 93 94 97 100 103 104 105 105 103 101 98 94 88
63 66 68 70 71 72 72 74 77 79 81 83 84 84 85 86 86 87 88 89 92 94 96 98 101 102 103 103 103 102 102 102 104 106 108 109 111 111 111 110 109 110 110 107 104 101 99 98 97 97 97 97 95 94 94 95 96 97 98 99 99 98 97 97 96 95 90 83 76
68 71 72 73 74 75 76 76 78 79 80 81 81 81 82 83 83 84 84 85 85 86 89 91 94 95 97 97 98 98 97 96 97 99 102 106 109 109 109 108 107 108 107 103 100 98 97 96 97 98 98 98 96 95 97 99 100 100 100 99 96 92 88 85 85 83 81 76 71
74 77 78 79 80 81 81 82 81 81 81 80 79 78 77 78 79 81 83 85 84 83 82 83 85 85 85 85 88 90 91 91 90 90 93 98 102 104 105 105 105 106 105 101 98 97 97 98 99 100 101 101 99 100 101 102 103 104 105 104 99 92 85 78 73 68 64 65 69
75 80 83 84 85 85 85 84 83 82 80 79 78 76 74 73 75 78 83 87 86 84 83 82 81 81 80 80 82 85 87 89 88 87 87 88 92 97 100 103 105 105 103 100 99 99 100 102 104 106 106 105 104 105 107 107 109 110 110 106 99 88 77 67 60 52 47 47 71
72 78 82 85 84 83 83 83 82 82 80 79 78 76 75 74 74 77 82 87 87 85 84 82 82 81 81 81 81 81 83 85 86 85 84 83 85 89 95 101 104 105 104 102 103 104 106 108 111 113 113 112 114 115 115 115 115 113 109 101 91 77 65 56 49 39 27 9 182
65 71 77 80 81 80 80 80 81 82 82 81 79 78 77 76 75 77 80 84 86 86 85 83 82 82 83 83 81 78 77 77 80 81 81 80 82 87 93 99 105 107 108 108 109 111 113 117 120 122 124 123 124 124 122 119 115 110 104 97 87 73 60 51 40 29 15 352 37
60 65 70 76 78 79 79 79 79 81 82 82 80 79 77 76 76 77 78 80 83 85 85 83 81 81 80 80 78 74 70 68 70 73 75 76 81 85 89 94 102 111 116 117 118 120 123 126 129 130 130 127 127 125 121 117 112 107 102 96 90 77 62 47 37 28 16 3 20
61 64 68 72 75 77 78 78 77 78 80 81 80 79 78 78 79 79 78 79 80 80 81 79 77 76 76 76 74 71 66 61 58 59 63 67 71 74 74 73 79 102 117 125 126 127 128 129 130 130 129 124 124 123 121 118 115 111 105 96 89 80 67 46 36 28 17 5 3
66 68 70 72 74 76 77 77 76 76 76 77 78 79 81 81 82 81 80 79 77 76 76 75 74 73 73 73 72 69 65 59 52 49 50 54 57 57 55 51 46 63 109 133 131 128 126 126 128 129 129 126 125 125 124 123 120 117 112 100 88 82 75 56 38 23 7 350 332